STARLINK-11365, 62886

Orbit data source: Space-Track

STARLINK-11365, 62886 is a payload satellite owned by SpaceX/Seattle (US) in LEO that was launched on Tue, 04 Feb 2025 UTC via an FALCON 9 launch vehicle from the Air Force Eastern Test Range (AFETR). Payload-class satellites include a variety of spacecraft equipped with specific instruments for various scientific and technological missions. These include communications satellites like Starlink; space stations such as the ISS; scientific satellites like the Hubble; Earth observation satellites from companies like Planet Labs, Umbra, and HawkEye 360; GPS; miniature CubeSats for education and research; and military/defense satellites.

Loading next visibility...
Identifier
62886, 2025-024H
Orbit
LEO
Country
Flag of USUS
Related business
Manufacturer
SpaceX/Seattle
Mission
Operational Commercial Communications
Bus & Motor
STARLINK V2MD, Unknown motor
Mass
960 kg wet, ~910 kg dry
Launch date (UTC)
2025-02-04 (10 months ago)
Launch vehicle
FALCON 9
Launch site
Air Force Eastern Test Range (AFETR)
Object type
Payload
Rocket body
Debris
Shape & HBR
Box + 2 Pan, 18.1 m
Radar Cross Section
36.964 m², Large (>1 m²)

Expand to show TLE details & history
Last TLE update: 1 day ago

TLE from 1 day ago
0 STARLINK-11365
1 62886U 25024H   25348.44789612  .00245965  00000-0  18580-2 0  9991
2 62886  42.9994 334.9645 0001166 275.5343  84.5392 15.70919277 50066
Epoch: 2025-12-14T10:44Z
TLE epoch observation values (Epoch: 2025-12-14T10:44:58.224Z)
Latitude
-0.00001°
Longitude
90.36122°
Altitude
355.965 km
Speed
7.698 km/s
True Right ascension
22h 19m 51s
True Declination
0° 00' 00"
Sunlit
Object was in daylight at epoch
Visualization orbit readout
Latitude
Unknown
Longitude
Unknown
Altitude
Unknown
Speed
Unknown
Apparent Right ascension
Unknown
Apparent Declination
Unknown
Sunlit
N/A
Visualization observer readout
Local Sidereal Time
12:43:57
Azimuth
Unknown
Elevation
Unknown
Doppler factor
Unknown
Orbital elements
Apogee altitude
359.036 km
Perigee altitude
357.465 km
Semi-major axis
6,736.387 km
Eccentricity
0.00012
Inclination
42.9994°
RAAN
334.9645°
Arg. of periapsis
275.5343°
True anomaly
84.5525°
Mean anomaly
84.5392°
Eccentric anomaly
84.54585°
Mean motion
3.92557 °/min
Orbital period
91.71 mins
BSTAR
0.001858
Loading maneuver chart data...
Computing Atmospheric mass density...
Loading historical data...
Loading historical data...
Loading historical data...
Loading historical data...
Loading historical data...
Loading historical data...
Loading historical data...

Documentation

Showing up to 5 results
|